Fountain Dale, PA

3:27 AM EDT on May 24, 2017 (GMT -0400)
Fountain Dale

Weather History for KRYT - February, 2013

Change the Weather History Date:

Friday, February 1, 2013

  Actual Average (KHGR) Record (KHGR)
Temperature  
Mean Temperature 24 °F -  
Max Temperature 30 °F 37 °F 62 °F (2002)
Min Temperature 17 °F 23 °F 5 °F (2004)
Degree Days  
Heating Degree Days 41    
Moisture  
Dew Point 9 °F    
Average Humidity 54    
Maximum Humidity 78    
Minimum Humidity 40    
Precipitation  
Precipitation 0.01 in - - ()
Sea Level Pressure  
Sea Level Pressure 30.03 in    
Wind  
Wind Speed 8 mph (WNW)    
Max Wind Speed 15 mph    
Max Gust Speed 31 mph    
Visibility 8 miles    
Events Snow    
Averages and records for this station are not official NWS values.
T = Trace of Precipitation, MM = Missing Value Source: NWS Daily Summary

Daily Weather History Graph

Daily Weather History Graph

Search for Another Location

Airport or City:

Trip Planner

Search our weather history database for the weather conditions in past years. The results will help you decide how hot, cold, wet, or windy it might be!

Date:

Astronomy

Feb. 01, 2013 Rise Set
Actual Time 7:17 AM EST 5:29 PM EST
Civil Twilight 6:48 AM EST 5:58 PM EST
Nautical Twilight 6:16 AM EST 6:30 PM EST
Astronomical Twilight 5:45 AM EST 7:02 PM EST
Moon 11:33 PM EST (2/1) 9:50 AM EST (2/1)
Length of Visible Light 11h 09m
Length of Day
10h 12m
Waning Gibbous, 70% of the Moon is Illuminated
Feb 1
Waning Gibbous
Feb 3
Last Quarter
Feb 10
New
Feb 17
First Quarter
Feb 25
Full

Hourly Weather History & Observations

Time (EST) Temp. Windchill Dew Point Humidity Pressure Visibility Wind Dir Wind Speed Gust Speed Precip Events Conditions
12:53 AM 28.9 °F 21.9 °F 10.9 °F 47% 29.84 in 10.0 mi SW 6.9 mph - N/A   Clear
1:53 AM 28.9 °F 22.8 °F 12.0 °F 49% 29.85 in 10.0 mi SW 5.8 mph - N/A   Partly Cloudy
2:53 AM 30.0 °F 25.2 °F 12.9 °F 49% 29.84 in 10.0 mi SSW 4.6 mph - N/A   Overcast
3:53 AM 30.0 °F 25.2 °F 12.9 °F 49% 29.83 in 10.0 mi WSW 4.6 mph - N/A   Overcast
4:53 AM 28.9 °F 21.9 °F 15.1 °F 56% 29.85 in 9.0 mi NW 6.9 mph - N/A   Overcast
5:01 AM 28.4 °F 20.4 °F 17.6 °F 64% 29.80 in 2.5 mi WNW 8.1 mph - 0.00 in Snow Light Snow
5:16 AM 26.6 °F 19.1 °F 19.4 °F 74% 29.81 in 1.8 mi Variable 6.9 mph - 0.00 in Snow Light Snow
5:29 AM 26.6 °F 19.1 °F 19.4 °F 74% 29.82 in 0.8 mi WNW 6.9 mph - 0.00 in Snow Light Snow
5:51 AM 26.6 °F 21.2 °F 19.4 °F 74% 29.84 in 0.5 mi Variable 4.6 mph - 0.01 in Snow Snow
5:53 AM 26.1 °F 18.4 °F 19.9 °F 78% 29.89 in 0.5 mi Variable 6.9 mph - 0.01 in Snow Snow
6:01 AM 26.6 °F 15.7 °F 17.6 °F 69% 29.84 in 2.0 mi WNW 12.7 mph 21.9 mph 0.00 in Snow Light Snow
6:11 AM 26.6 °F 20.0 °F 17.6 °F 69% 29.83 in 5.0 mi WNW 5.8 mph - 0.00 in Snow Light Snow
6:24 AM 26.6 °F 19.1 °F 17.6 °F 69% 29.83 in 10.0 mi West 6.9 mph - 0.00 in   Overcast
6:53 AM 26.1 °F 19.4 °F 17.1 °F 69% 29.91 in 10.0 mi West 5.8 mph - 0.00 in   Overcast
7:53 AM 24.1 °F 14.4 °F 9.0 °F 53% 29.96 in 10.0 mi WNW 9.2 mph 23.0 mph N/A   Overcast
8:53 AM 23.0 °F 10.6 °F 8.1 °F 53% 30.02 in 10.0 mi NNW 13.8 mph 24.2 mph N/A   Mostly Cloudy
9:53 AM 24.1 °F 11.5 °F 5.0 °F 44% 30.05 in 10.0 mi West 15.0 mph 27.6 mph N/A   Mostly Cloudy
10:53 AM 23.0 °F 11.7 °F 5.0 °F 46% 30.09 in 10.0 mi NW 11.5 mph 31.1 mph N/A   Mostly Cloudy
11:53 AM 24.1 °F 11.5 °F 5.0 °F 44% 30.11 in 10.0 mi West 15.0 mph 24.2 mph N/A   Overcast
12:53 PM 25.0 °F 13.1 °F 3.9 °F 41% 30.11 in 10.0 mi WSW 13.8 mph 24.2 mph N/A   Overcast
1:53 PM 24.1 °F 14.4 °F 5.0 °F 44% 30.13 in 10.0 mi WNW 9.2 mph 23.0 mph N/A   Overcast
2:53 PM 25.0 °F 14.8 °F 3.9 °F 41% 30.15 in 10.0 mi NNW 10.4 mph 24.2 mph N/A   Overcast
3:53 PM 23.0 °F 13.1 °F 3.0 °F 42% 30.19 in 10.0 mi West 9.2 mph 20.7 mph N/A   Partly Cloudy
4:53 PM 21.9 °F 12.5 °F 1.0 °F 40% 30.23 in 10.0 mi West 8.1 mph 24.2 mph N/A   Scattered Clouds
5:53 PM 19.9 °F 11.1 °F 1.9 °F 46% 30.26 in 10.0 mi Variable 6.9 mph 19.6 mph N/A   Clear
6:53 PM 19.9 °F 12.1 °F 3.0 °F 48% 30.29 in 10.0 mi Variable 5.8 mph - N/A   Partly Cloudy
7:53 PM 19.9 °F 10.1 °F 1.0 °F 44% 30.31 in 10.0 mi NW 8.1 mph - N/A   Partly Cloudy
8:53 PM 19.0 °F 10.0 °F 1.9 °F 47% 30.33 in 10.0 mi Variable 6.9 mph 18.4 mph N/A   Partly Cloudy
9:53 PM 18.0 °F 8.7 °F 1.9 °F 50% 30.35 in 10.0 mi Variable 6.9 mph - N/A   Clear
10:53 PM 18.0 °F 9.8 °F 1.9 °F 50% 30.35 in 10.0 mi Variable 5.8 mph - N/A   Clear
11:53 PM 17.1 °F 8.7 °F 1.9 °F 52% 30.37 in 10.0 mi Variable 5.8 mph - N/A   Clear